Weather Roundup
Issued by NWS Chicago, IL

Home | Current Version | Previous Version | Text Only | Print | Product List | Glossary Off
Versions: 1 2 3 4 5 6 7 8 9 10 11 12 13 14 15 16 17 18 19 20 21 22 23 24 25 26 27 28 29 30 31 32 33 34 35 36 37 38 39 40 41 42 43 44 45 46 47 48 49 50

000
NZUS59 KLOT 300308
HRRLOT

CHICAGO AREA WEATHER ROUNDUP
NATIONAL WEATHER SERVICE CHICAGO/ROMEOVILLE IL
1000 PM CDT FRI APR 29 2016

NOTE: "FAIR" INDICATES FEW OR NO CLOUDS BELOW 12,000 FEET WITH NO
SIGNIFICANT WEATHER AND/OR OBSTRUCTIONS TO VISIBILITY.

* THESE STATIONS ARE NOT UNDER NWS QUALITY CONTROL. THEY ALSO MAY NOT
  REPORT WEATHER SUCH AS PRECIPITATION OR FOG.

ILZ005-006-012>014-019>023-300400-
NORTHEAST ILLINOIS

CITY           SKY/WX    TMP DP  RH WIND       PRES   REMARKS
OHARE          CLOUDY    43  37  79 VRB7      30.14R
MIDWAY         CLOUDY    45  37  73 E8        30.14R
AURORA         CLOUDY    46  39  76 E8        30.13R
LANSING*       CLOUDY    43  38  84 NE7       30.14S
JOLIET*        CLOUDY    46  41  85 NE6       30.14R
WAUKEGAN       CLOUDY    41  36  82 NE6       30.14S
DUPAGE AIRPORT CLOUDY    44  36  73 E8        30.13R
WHEELING       CLOUDY    43  37  79 E7        30.15S
KANKAKEE*      PTCLDY    44  39  85 NE7       30.13R
MORRIS*        CLOUDY    46  41  82 E9        30.11S
LEWIS AIRPORT* CLOUDY    44  39  82 E7        30.14R
$$

WIZ051-052-058>065-066-070>072-300400-
SOUTHEAST WISCONSIN

CITY           SKY/WX    TMP DP  RH WIND       PRES   REMARKS
MILWAUKEE      MOCLDY    40  34  79 CALM      30.15S
KENOSHA*       CLOUDY    42  35  76 E8        30.15S
RACINE*        CLOUDY    42  34  73 NE6       30.17S
BURLINGTON     CLOUDY    41  35  80 E8        30.15R
WAUKESHA       CLEAR     37  32  81 CALM      30.16R
WEST BEND      CLEAR     39  32  75 CALM      30.15S
$$

INZ001>003-010>013-019-020-300400-
NORTHWEST INDIANA

CITY           SKY/WX    TMP DP  RH WIND       PRES   REMARKS
GARY*          CLOUDY    45  45 100 NE7       30.15S
MICHIGAN CITY* NOT AVBL
RENSSELAER*    NOT AVBL
VALPARAISO     CLOUDY    43  40  89 NE5       30.14S
$$

LMZ740>746-300400-
SOUTHERN LAKE MICHIGAN

STATION/POSITION TIME  SKY/WX   TEMP WIND        PRES    VSBY
                                AIR  DIR/SP/G
                 (UTC)          (F)  (DEG/KT/KT) (MB)    (MI)
HARRISON CRIB    0200            42   20/ 10/ 11   N/A
BURNHAM HARBOR   0300            42   30/  7/ 10   N/A
CALUMET HARBOR   0200            42              1020.1F
BURNS HARBOR     0300            44   50/  9/ 12 1020.7F
MICHIGAN CITY    0200            42   10/  9/ 10   N/A
$$

ABBREVIATIONS USED IN REMARKS
   TC - TEMPERATURE IN CELSIUS
  WCI - WIND CHILL INDEX
   HX - HEAT INDEX
  VSB - VISIBILITY
$$




USA.gov is the U.S. government's official web portal to all federal, state and local government web resources and services.